N5RML-1 Weather Reports


Display with metric or nautical units.
time (UTC)temp
F
wind
direction
speed
MPH
gust
MPH
rain 1hr
in
rain 24hr
in
rain mn
in
humidity
%
barometer
mb
20260831042540 82 77 2.0 4.0 0.00 0.00 0.00 87 1017.6
20260831041527 82 150 2.0 3.0 0.00 0.00 0.00 87 1017.7
20260831040535 82 154 1.0 3.0 0.00 0.00 0.00 86 1017.7
20260831035545 82 126 2.0 4.0 0.00 0.00 0.00 86 1017.6
20260831034533 82 146 1.0 3.0 0.00 0.00 0.00 86 1017.7
20260831033522 82 86 1.0 5.0 0.00 0.00 0.00 86 1017.7
20260831032530 82 89 2.0 3.0 0.00 0.00 0.00 85 1017.7
20260831031540 82 188 2.0 4.0 0.00 0.00 0.00 85 1017.7
20260831030547 82 128 1.0 4.0 0.00 0.00 0.00 85 1017.6
20260831025536 82 143 2.0 4.0 0.00 0.00 0.00 85 1017.6
20260831024525 82 142 1.0 3.0 0.00 0.00 0.00 85 1017.6
20260831023533 82 87 2.0 5.0 0.00 0.00 0.00 84 1017.5
20260831022523 82 112 0.0 2.0 0.00 0.00 0.00 84 1017.4
20260831021530 83 113 0.0 3.0 0.00 0.00 0.00 83 1017.3
20260831020520 83 140 2.0 4.0 0.00 0.00 0.00 83 1017.2
20260831015528 83 87 2.0 4.0 0.00 0.00 0.00 83 1017.1
20260831014536 83 120 1.0 7.0 0.00 0.00 0.00 83 1017.1
20260831013526 83 48 2.0 6.0 0.00 0.00 0.00 83 1016.9
20260831012533 83 327 1.0 4.0 0.00 0.00 0.00 83 1016.8
20260831011522 84 63 2.0 4.0 0.00 0.00 0.00 82 1016.8
20260831010531 84 68 0.0 1.0 0.00 0.00 0.00 81 1016.6
20260831005520 84 77 3.0 5.0 0.00 0.00 0.00 80 1016.4
20260831004528 85 115 2.0 4.0 0.00 0.00 0.00 79 1016.4
20260831003536 85 140 2.0 5.0 0.00 0.00 0.00 78 1016.3
20260831002526 85 149 2.0 4.0 0.00 0.00 0.00 76 1016.4
20260831001553 86 91 3.0 5.0 0.00 0.00 0.00 75 1016.4
20260831000523 87 95 2.0 6.0 0.00 0.00 0.00 75 1016.4
20260830235531 87 195 2.0 6.0 0.00 0.00 0.00 73 1016.4
20260830234520 88 133 1.0 4.0 0.00 0.00 0.00 72 1016.4
20260830233529 89 94 2.0 4.0 0.00 0.00 0.00 71 1016.3
20260830232537 89 55 3.0 6.0 0.00 0.00 0.00 71 1016.3
20260830231546 88 47 4.0 10.0 0.00 0.00 0.00 73 1016.3
20260830230534 88 92 3.0 5.0 0.00 0.00 0.00 74 1016.5
20260830225543 88 344 3.0 5.0 0.00 0.00 0.00 73 1016.4
20260830224531 89 106 3.0 5.0 0.00 0.00 0.00 72 1016.4
20260830223520 88 122 4.0 8.0 0.00 0.00 0.00 73 1016.4
20260830222528 88 115 4.0 6.0 0.00 0.00 0.00 72 1016.4
20260830221617 88 112 4.0 8.0 0.00 0.00 0.00 73 1016.5
20260830220526 88 18 2.0 6.0 0.00 0.00 0.00 72 1016.7
20260830215534 88 136 3.0 6.0 0.00 0.00 0.00 71 1016.6
20260830214523 88 107 3.0 5.0 0.00 0.00 0.00 72 1016.6
20260830213551 88 83 4.0 8.0 0.00 0.00 0.00 72 1016.7
20260830212520 88 167 4.0 6.0 0.00 0.00 0.00 70 1016.8
20260830211530 88 156 4.0 8.0 0.00 0.00 0.00 71 1016.7
20260830210535 89 155 4.0 7.0 0.00 0.00 0.00 69 1016.8
20260830205546 90 111 4.0 7.0 0.00 0.00 0.00 69 1016.8
20260830204553 89 97 4.0 7.0 0.00 0.00 0.00 72 1016.7
20260830203543 89 147 5.0 9.0 0.00 0.00 0.00 71 1016.9
20260830202530 89 358 4.0 8.0 0.00 0.00 0.00 71 1017.1
20260830201520 89 42 3.0 6.0 0.00 0.00 0.00 71 1017.2
20260830200547 90 300 4.0 8.0 0.00 0.00 0.00 70 1017.4
20260830195535 90 144 4.0 8.0 0.00 0.00 0.00 68 1017.5
20260830194525 91 92 5.0 7.0 0.00 0.00 0.00 64 1017.6
20260830193535 92 103 5.0 8.0 0.00 0.00 0.00 63 1017.7
20260830192540 92 145 4.0 7.0 0.00 0.00 0.00 62 1017.9
20260830191530 91 133 4.0 6.0 0.00 0.00 0.00 68 1018.1
20260830190520 92 148 5.0 14.0 0.00 0.00 0.00 64 1018.1
20260830185527 93 138 3.0 6.0 0.00 0.00 0.00 64 1017.9
20260830184555 93 46 3.0 5.0 0.00 0.00 0.00 62 1017.9
20260830183524 92 273 3.0 7.0 0.00 0.00 0.00 65 1017.9
20260830182532 92 145 4.0 8.0 0.00 0.00 0.00 65 1018.1
20260830181522 90 126 3.0 8.0 0.00 0.00 0.00 69 1018.3
20260830180529 88 67 5.0 7.0 0.00 0.00 0.00 72 1018.5
20260830175537 89 86 3.0 6.0 0.00 0.00 0.00 72 1018.6
20260830174530 90 53 4.0 7.0 0.00 0.00 0.00 70 1018.7
20260830173534 92 73 4.0 8.0 0.00 0.00 0.00 66 1018.8
20260830172524 91 123 3.0 7.0 0.00 0.00 0.00 66 1019.0
20260830171532 92 102 3.0 4.0 0.00 0.00 0.00 65 1019.0
20260830170521 91 19 3.0 6.0 0.00 0.00 0.00 69 1018.9
20260830165529 88 27 4.0 8.0 0.00 0.00 0.00 73 1019.0
20260830164537 87 65 3.0 5.0 0.00 0.00 0.00 78 1019.0
20260830163527 86 94 2.0 6.0 0.00 0.00 0.00 83 1019.1
20260830162535 86 15 2.0 4.0 0.00 0.00 0.00 81 1019.1
20260830161524 87 30 3.0 5.0 0.00 0.00 0.00 79 1019.2
20260830160532 89 47 3.0 6.0 0.00 0.00 0.00 75 1019.2
20260830155544 88 114 4.0 5.0 0.00 0.00 0.00 77 1019.0
20260830154529 88 1 3.0 4.0 0.00 0.00 0.00 78 1019.0
20260830153519 87 14 2.0 4.0 0.00 0.00 0.00 81 1019.0
20260830152527 86 24 3.0 5.0 0.00 0.00 0.00 82 1019.1
20260830151535 86 21 3.0 4.0 0.00 0.00 0.00 82 1019.0
20260830150525 86 24 3.0 6.0 0.00 0.00 0.00 82 1019.0
20260830145535 86 15 2.0 4.0 0.00 0.00 0.00 84 1018.8
20260830144522 86 36 3.0 4.0 0.00 0.00 0.00 83 1018.8
20260830143530 87 75 2.0 5.0 0.00 0.00 0.00 82 1018.7
20260830142539 86 62 2.0 4.0 0.00 0.00 0.00 82 1018.6
20260830141527 86 51 1.0 4.0 0.00 0.00 0.00 83 1018.6
20260830140536 87 23 1.0 3.0 0.00 0.00 0.00 82 1018.7
20260830135524 85 58 3.0 5.0 0.00 0.00 0.00 84 1018.7
20260830134533 85 29 2.0 4.0 0.00 0.00 0.00 86 1018.6
20260830133542 84 312 3.0 6.0 0.00 0.00 0.00 87 1018.6
20260830132530 84 61 1.0 3.0 0.00 0.00 0.00 90 1018.5
20260830131519 83 43 1.0 5.0 0.00 0.00 0.00 91 1018.4
20260830130530 82 45 1.0 3.0 0.00 0.00 0.00 92 1018.3
20260830125535 82 52 2.0 5.0 0.00 0.00 0.00 92 1018.2
20260830124525 81 55 1.0 4.0 0.00 0.00 0.00 94 1018.2
20260830123534 81 40 2.0 5.0 0.00 0.00 0.00 95 1018.1
20260830122522 80 49 1.0 5.0 0.00 0.00 0.00 95 1018.1
20260830121531 80 68 1.0 4.0 0.00 0.00 0.00 95 1018.1
20260830120540 80 64 1.0 4.0 0.00 0.00 0.00 95 1018.2
20260830115528 80 0.0 0.0 0.00 0.00 0.00 95 1018.1
20260830114536 80 0.0 1.0 0.00 0.00 0.00 95 1017.9
20260830113525 80 28 1.0 3.0 0.00 0.00 0.00 95 1017.8
20260830112533 80 23 0.0 2.0 0.00 0.00 0.00 95 1017.7
20260830111523 79 23 1.0 2.0 0.00 0.00 0.00 94 1017.6
20260830110532 79 0.0 0.0 0.00 0.00 0.00 93 1017.4
20260830105520 79 0.0 0.0 0.00 0.00 0.00 92 1017.2
20260830104529 79 0.0 0.0 0.00 0.00 0.00 92 1017.2
20260830103557 79 0.0 0.0 0.00 0.00 0.00 92 1017.1
20260830102526 79 0.0 0.0 0.00 0.00 0.00 92 1016.9
20260830101534 79 0.0 0.0 0.00 0.00 0.00 92 1016.9
20260830100524 79 0.0 0.0 0.00 0.00 0.00 91 1016.9
20260830095531 79 0.0 0.0 0.00 0.00 0.00 91 1016.9
20260830094521 80 0.0 0.0 0.00 0.00 0.00 91 1017.0
20260830093529 80 0.0 0.0 0.00 0.00 0.00 91 1017.0
20260830092537 80 0.0 0.0 0.00 0.00 0.00 91 1016.9
20260830091546 80 68 0.0 2.0 0.00 0.00 0.00 91 1016.8
20260830090534 80 45 0.0 2.0 0.00 0.00 0.00 91 1016.8
20260830085524 80 0.0 0.0 0.00 0.00 0.00 90 1016.8
20260830084532 80 68 0.0 1.0 0.00 0.00 0.00 90 1016.8
20260830083521 80 0.0 0.0 0.00 0.00 0.00 90 1016.9
20260830082529 80 0.0 0.0 0.00 0.00 0.00 90 1016.8
20260830081519 80 23 0.0 2.0 0.00 0.00 0.00 90 1016.8
20260830080530 80 57 1.0 3.0 0.00 0.00 0.00 90 1016.8
20260830075555 81 0.0 0.0 0.00 0.00 0.00 90 1016.8
20260830074527 81 0.0 0.0 0.00 0.00 0.00 90 1017.1
20260830073613 81 0.0 0.0 0.00 0.00 0.00 89 1017.1
20260830072522 81 68 0.0 3.0 0.00 0.00 0.00 89 1017.1
20260830071530 81 0.0 2.0 0.00 0.00 0.00 88 1017.2
20260830070747 81 0.0 0.0 0.00 0.00 0.00 88 1017.3
20260830070522 81 76 1.0 3.0 0.00 0.00 0.00 88 1017.3
20260830065527 81 47 1.0 2.0 0.00 0.00 0.00 88 1017.5
20260830064556 82 71 1.0 4.0 0.00 0.00 0.00 88 1017.6
20260830063525 82 90 0.0 2.0 0.00 0.00 0.00 87 1017.7
20260830062532 82 146 0.0 2.0 0.00 0.00 0.00 87 1017.8
20260830061522 82 58 1.0 4.0 0.00 0.00 0.00 86 1017.9
20260830060530 82 69 1.0 3.0 0.00 0.00 0.00 86 1017.9
20260830055519 82 74 1.0 2.0 0.00 0.00 0.00 85 1018.0
20260830054529 83 64 1.0 3.0 0.00 0.00 0.00 85 1018.2
20260830053556 83 87 2.0 4.0 0.00 0.00 0.00 85 1018.3
20260830052525 83 116 1.0 5.0 0.00 0.00 0.00 85 1018.3
20260830051535 83 122 2.0 4.0 0.00 0.00 0.00 85 1018.4
20260830050522 83 87 2.0 5.0 0.00 0.00 0.00 85 1018.4
20260830045530 83 74 1.0 4.0 0.00 0.00 0.00 85 1018.4
20260830044520 83 151 2.0 5.0 0.00 0.00 0.00 85 1018.4
20260830043610 83 146 1.0 4.0 0.00 0.00 0.00 85 1018.5